Location: Crescent
(42.8242°N, 73.7329°W)
Time: 08:08:21
(UTC+00:00)

Vanguard 3 - Visible Passes

Search period start: 16 February 2026 00:00
Search period end: 26 February 2026 00:00
Orbit: 507 x 3205 km, 33.3° (Epoch: 15 February)

Date Brightness Start Highest point End Pass type
(mag) Time Alt. Az. Time Alt. Az. Time Alt. Az.
16 Feb 8.1 00:01:18 10° WSW 00:06:05 27° S 00:07:48 21° SSE visible
17 Feb 8.5 00:51:18 10° WSW 00:54:49 21° SSW 00:54:49 21° SSW visible
17 Feb 8.4 23:28:19 10° WSW 23:34:11 31° S 23:37:55 12° SE visible
19 Feb 8.3 00:18:31 10° WSW 00:23:16 24° SSW 00:24:56 20° SSE visible
19 Feb 8.7 22:55:04 10° WSW 23:02:12 35° S 23:06:46 10° ESE visible
20 Feb 9.0 01:09:15 10° WSW 01:11:59 15° SSW 01:11:59 15° SSW visible
20 Feb 8.8 23:45:27 10° WSW 23:51:18 28° SSW 23:55:07 11° SE visible
22 Feb 8.9 00:36:15 10° WSW 00:40:08 17° SSW 00:42:11 14° S visible
22 Feb 9.0 23:12:06 10° WSW 23:19:15 31° SSW 23:23:52 10° SE visible
24 Feb 9.2 00:03:01 10° WSW 00:08:05 20° SSW 00:11:47 10° SSE visible
25 Feb 9.4 23:29:32 10° W 23:35:56 23° SSW 23:40:23 10° SSE visible
